Regional Weather Roundup
Issued by NWS

Home | Current Version | Previous Version | Graphics & Text | Print | Product List | Glossary Off
Versions: 1 2 3 4 5 6 7 8 9 10 11 12 13 14 15 16 17 18 19 20 21 22 23 24 25 26 27 28 29 30 31 32 33 34 35 36 37 38 39 40 41 42 43 44 45 46 47 48 49 50

000
ASUS43 KLSX 201757
RWRMO

WEATHER SUMMARY FOR MISSOURI
NATIONAL WEATHER SERVICE SPRINGFIELD MO
100 PM CDT FRI OCT 20 2017

NOTE: "FAIR" INDICATES FEW OR NO CLOUDS BELOW 12,000 FEET WITH NO
       SIGNIFICANT WEATHER AND/OR OBSTRUCTIONS TO VISIBILITY.
       CURRENT SKY AND/OR WEATHER CONDITIONS ARE NOT AVAILABLE FOR
       CHILLICOTHE AND FARMINGTON.

MOZ001>031-035>038-043-044-053-054-201900-
...NORTHERN AND WESTERN MISSOURI...

CITY           SKY/WX    TMP DP  RH WIND       PRES   REMARKS
KANSAS CTY INT MOSUNNY   70  57  63 S21G26    30.00F
6HR MIN TEMP:  56; 6HR MAX TEMP:  72;

LEE`S SUMMIT   CLOUDY    69  57  65 S15       30.03F
6HR MIN TEMP:  55; 6HR MAX TEMP:  70; 6HR PCP: TRACE;

ST JOSEPH      SUNNY     75  58  55 S20G28    29.96F
6HR MIN TEMP:  54; 6HR MAX TEMP:  75;

CHILLICOTHE      N/A     72  57  59 S10G21    30.03F
6HR MIN TEMP:  48; 6HR MAX TEMP:  72;


$$
MOZ066>068-077>081-088>096-101>105-201900-
...SOUTHWEST MISSOURI...

CITY           SKY/WX    TMP DP  RH WIND       PRES   REMARKS
SPRINGFIELD    CLOUDY    72  54  53 SE13      30.10F
6HR MIN TEMP:  52; 6HR MAX TEMP:  72;

JOPLIN         PTSUNNY   67  58  72 S12       30.07F
6HR MIN TEMP:  55; 6HR MAX TEMP:  68; 6HR PCP: TRACE;

BRANSON        PTSUNNY   73  52  46 SE7       30.14F

$$
MOZ032>034-039>042-045>050-055>058-069>072-201900-
...CENTRAL MISSOURI...

CITY           SKY/WX    TMP DP  RH WIND       PRES   REMARKS
COLUMBIA       NOT AVBL
JEFFERSON CITY CLOUDY    70  52  52 S5        30.11F
6HR MIN TEMP:  45; 6HR MAX TEMP:  70;

SEDALIA        MOSUNNY   70  58  65 S14       30.09F
6HR MIN TEMP:  56; 6HR MAX TEMP:  71;

WARRENSBURG    MOSUNNY   70  54  56 S13       30.05F

$$
MOZ051-052-059>065-201900-
...EAST CENTRAL MISSOURI...

CITY           SKY/WX    TMP DP  RH WIND       PRES   REMARKS
ST LOUIS INTL  PTSUNNY   73  51  46 SE8       30.15F
6HR MIN TEMP:  52; 6HR MAX TEMP:  73;


$$
MOZ072>076-082>087-097>100-106>115-201900-
...SOUTH CENTRAL AND SOUTHEAST MISSOURI...

CITY           SKY/WX    TMP DP  RH WIND       PRES   REMARKS
CAPE GIRARDEAU SUNNY     75  51  43 S8        30.18F
6HR MIN TEMP:  42; 6HR MAX TEMP:  75;

POPLAR BLUFF   CLOUDY    74  55  51 S8        30.18F
6HR MIN TEMP:  42; 6HR MAX TEMP:  74;

WEST PLAINS    PTSUNNY   70  53  54 S8        30.18F
6HR MIN TEMP:  45; 6HR MAX TEMP:  71;


$$



USA.gov is the U.S. government's official web portal to all federal, state and local government web resources and services.